Durant, OK

7:35 AM CST on December 16, 2019 (GMT -0600)
Eaker

Weather History for KDUA - October, 2019

Change the Weather History Date:

Wednesday, October 2, 2019

  Actual Average (WUND) Record (WUND)
Temperature  
Mean Temperature 83 °F -  
Max Temperature 93 °F - - (-1)
Min Temperature 73 °F - - (-1)
Cooling Degree Days 18    
Growing Degree Days 33 (Base 50)    
Moisture  
Dew Point 67 °F    
Average Humidity 61    
Maximum Humidity 88    
Minimum Humidity 34    
Precipitation  
Precipitation 0.00 in - - ()
Sea Level Pressure  
Sea Level Pressure 29.98 in    
Wind  
Wind Speed 8 mph (South)    
Max Wind Speed 13 mph    
Max Gust Speed 18 mph    
Visibility 10 miles    
Events      
Averages and records for this station are not official NWS values.
T = Trace of Precipitation, MM = Missing Value Source: NWS Daily Summary

Daily Weather History Graph

Daily Weather History Graph

Search for Another Location

Airport or City:

Astronomy

Oct. 02, 2019 Rise Set
Actual Time 7:20 AM CDT 7:08 PM CDT
Civil Twilight 6:55 AM CDT 7:33 PM CDT
Nautical Twilight 6:26 AM CDT 8:02 PM CDT
Astronomical Twilight 5:57 AM CDT 8:31 PM CDT
Moon 11:36 AM CDT (10/2) 10:15 PM CDT (10/2)
Length of Visible Light 12h 37m
Length of Day
11h 48m
Waxing Crescent, 20% of the Moon is Illuminated
Oct 2
Waxing Crescent
Oct 5
First Quarter
Oct 13
Full
Oct 21
Last Quarter
Oct 27
New

Hourly Weather History & Observations

Time (CDT) Temp. Heat Index Dew Point Humidity Pressure Visibility Wind Dir Wind Speed Gust Speed Precip Events Conditions
12:55 AM 78.8 °F - 68.0 °F 69% 29.97 in 10.0 mi South 8.1 mph - N/A   Clear
1:35 AM 78.8 °F - 68.0 °F 69% 29.97 in 10.0 mi South 9.2 mph - N/A   Clear
1:56 AM 78.8 °F - 69.8 °F 74% 29.97 in 10.0 mi South 9.2 mph - N/A   Clear
2:15 AM 78.8 °F - 69.8 °F 74% 29.97 in 10.0 mi South 10.4 mph - N/A   Clear
2:54 AM 78.8 °F - 69.8 °F 74% 29.98 in 10.0 mi South 10.4 mph - N/A   Clear
3:14 AM 78.8 °F - 69.8 °F 74% 29.99 in 10.0 mi South 8.1 mph - N/A   Clear
3:34 AM 77.0 °F - 69.8 °F 78% 29.98 in 10.0 mi South 8.1 mph - N/A   Clear
3:54 AM 77.0 °F - 68.0 °F 74% 29.98 in 10.0 mi SSW 8.1 mph - N/A   Clear
4:16 AM 75.2 °F - 69.8 °F 83% 29.98 in 10.0 mi SSW 9.2 mph - N/A   Clear
4:34 AM 75.2 °F - 69.8 °F 83% 29.98 in 10.0 mi South 8.1 mph - N/A   Clear
4:55 AM 75.2 °F - 69.8 °F 83% 29.99 in 10.0 mi South 6.9 mph - N/A   Clear
5:14 AM 75.2 °F - 69.8 °F 83% 29.99 in 10.0 mi South 6.9 mph - N/A   Clear
6:14 AM 73.4 °F - 68.0 °F 83% 30.00 in 10.0 mi South 6.9 mph - N/A   Clear
7:54 AM 73.4 °F - 69.8 °F 88% 30.01 in 10.0 mi South 6.9 mph - N/A   Clear
8:36 AM 77.0 °F - 69.8 °F 78% 30.02 in 10.0 mi SSW 9.2 mph - N/A   Clear
8:56 AM 78.8 °F - 69.8 °F 74% 30.03 in 10.0 mi SSW 12.7 mph - N/A   Clear
9:14 AM 78.8 °F - 69.8 °F 74% 30.03 in 10.0 mi SSW 12.7 mph - N/A   Clear
9:54 AM 82.4 °F 86.3 °F 69.8 °F 66% 30.03 in 10.0 mi SSW 11.5 mph - N/A   Clear
10:15 AM 82.4 °F 86.3 °F 69.8 °F 66% 30.03 in 10.0 mi SSW 11.5 mph - N/A   Clear
10:36 AM 84.2 °F 88.4 °F 69.8 °F 62% 30.04 in 10.0 mi SSW 10.4 mph 16.1 mph N/A   Clear
10:56 AM 84.2 °F 87.3 °F 68.0 °F 58% 30.04 in 10.0 mi SW 10.4 mph 17.3 mph N/A   Clear
11:15 AM 84.2 °F 87.3 °F 68.0 °F 58% 30.04 in 10.0 mi SW 12.7 mph 17.3 mph N/A   Clear
12:34 PM 87.8 °F 90.4 °F 66.2 °F 49% 30.02 in 10.0 mi SW 10.4 mph - N/A   Scattered Clouds
1:16 PM 89.6 °F 92.2 °F 66.2 °F 46% 30.01 in 10.0 mi WSW 5.8 mph - N/A   Scattered Clouds
1:54 PM 91.4 °F 94.0 °F 66.2 °F 43% 29.99 in 10.0 mi SSW 9.2 mph 17.3 mph N/A   Scattered Clouds
2:55 PM 93.2 °F 94.9 °F 64.4 °F 38% 29.97 in 10.0 mi SSW 10.4 mph - N/A   Clear
3:14 PM 93.2 °F 93.3 °F 60.8 °F 34% 29.96 in 10.0 mi SSW 9.2 mph 18.4 mph N/A   Clear
3:54 PM 93.2 °F 93.3 °F 60.8 °F 34% 29.95 in 10.0 mi South 10.4 mph - N/A   Clear
4:14 PM 93.2 °F 93.3 °F 60.8 °F 34% 29.95 in 10.0 mi SSW 12.7 mph 17.3 mph N/A   Clear
4:35 PM 93.2 °F 93.3 °F 60.8 °F 34% 29.94 in 10.0 mi South 11.5 mph 17.3 mph N/A   Clear
5:15 PM 93.2 °F 94.1 °F 62.6 °F 36% 29.94 in 10.0 mi South 9.2 mph - N/A   Scattered Clouds
5:55 PM 93.2 °F 94.1 °F 62.6 °F 36% 29.94 in 10.0 mi South 10.4 mph - N/A   Clear
6:15 PM 91.4 °F 92.1 °F 62.6 °F 38% 29.94 in 10.0 mi South 9.2 mph - N/A   Clear
6:35 PM 91.4 °F 92.1 °F 62.6 °F 38% 29.94 in 10.0 mi South 8.1 mph - N/A   Clear
6:55 PM 89.6 °F 91.1 °F 64.4 °F 43% 29.94 in 10.0 mi South 6.9 mph - N/A   Clear
7:14 PM 86.0 °F 87.3 °F 64.4 °F 48% 29.94 in 10.0 mi South 4.6 mph - N/A   Clear
7:56 PM 82.4 °F 83.9 °F 64.4 °F 54% 29.95 in 10.0 mi SSE 3.5 mph - N/A   Clear
8:37 PM 80.6 °F 82.3 °F 64.4 °F 58% 29.96 in 10.0 mi SE 3.5 mph - N/A   Scattered Clouds
8:55 PM 80.6 °F 82.7 °F 66.2 °F 61% 29.97 in 10.0 mi SE 4.6 mph - N/A   Scattered Clouds
9:14 PM 78.8 °F - 66.2 °F 65% 29.98 in 10.0 mi SE 3.5 mph - N/A   Scattered Clouds
9:54 PM 78.8 °F - 66.2 °F 65% 29.98 in 10.0 mi SE 3.5 mph - N/A   Scattered Clouds
10:15 PM 77.0 °F - 66.2 °F 69% 29.98 in 10.0 mi SE 4.6 mph - N/A   Scattered Clouds
10:36 PM 77.0 °F - 66.2 °F 69% 29.99 in 10.0 mi South 4.6 mph - N/A   Clear
10:56 PM 77.0 °F - 66.2 °F 69% 29.99 in 10.0 mi Calm Calm - N/A   Clear
11:16 PM 77.0 °F - 66.2 °F 69% 29.99 in 10.0 mi South 3.5 mph - N/A   Clear
11:37 PM 77.0 °F - 66.2 °F 69% 30.00 in 10.0 mi SSE 4.6 mph - N/A   Clear